Theta_e
315 314 314 314 315 314 313 312 314 315 315 316 318 317 316 316 315 316 316 315 315 315 315 314 314 315 316 315 316 315 320 320 319 319 319 315 316 314 313 313 312 312 313 313 313
315 314 315 315 315 315 314 313 314 315 315 316 317 317 316 316 316 316 316 316 316 316 315 315 315 315 316 315 316 318 320 319 317 317 318 317 315 313 314 316 316 314 314 312 312
318 316 316 315 315 315 314 314 314 316 317 317 318 317 316 316 316 316 317 318 317 317 316 315 315 316 317 314 314 316 320 315 315 314 314 315 315 312 314 317 314 312 312 312 312
320 318 317 316 315 315 315 315 316 318 318 318 319 318 316 315 318 316 318 316 316 316 315 316 316 317 318 318 313 317 315 314 314 313 313 314 312 314 312 314 311 311 312 314 311
320 319 318 317 316 316 315 316 317 319 318 319 320 318 316 316 316 317 316 312 312 313 313 314 315 315 318 316 314 315 315 312 311 310 310 310 313 312 312 312 313 313 312 311 306
321 319 318 317 316 316 316 317 319 320 319 319 319 317 317 318 317 317 315 313 312 311 313 314 315 315 316 315 314 312 312 312 310 310 309 312 312 310 312 312 311 311 310 306 304
322 319 319 318 317 317 318 319 320 321 320 319 319 317 317 316 316 315 315 314 313 312 312 313 313 313 313 316 311 310 313 316 313 312 310 310 314 312 313 311 309 311 307 304 303
322 319 319 319 317 317 319 320 321 321 319 319 317 317 316 316 313 311 311 314 313 312 312 312 312 312 311 310 312 314 314 315 315 313 309 313 313 314 312 309 310 309 306 303 302
322 320 320 319 317 317 319 320 321 320 318 319 317 317 316 316 313 310 311 312 312 311 312 312 311 311 312 316 317 317 316 314 313 313 312 313 314 314 310 308 308 306 303 302 301
322 321 319 318 316 317 318 320 321 319 318 318 317 317 316 316 314 310 311 312 310 310 312 313 312 315 316 316 316 317 317 314 313 313 313 314 315 313 309 307 305 304 302 300 300
322 321 319 317 316 317 317 320 317 315 316 316 315 314 316 314 315 312 312 311 309 313 314 312 311 317 314 312 313 314 315 315 312 313 313 313 312 311 307 304 303 302 300 298 299
322 320 319 316 315 313 314 313 306 309 312 314 314 317 316 314 314 311 310 310 311 314 314 312 309 313 311 311 312 313 312 311 313 312 310 310 310 308 307 301 300 300 298 298 298
321 320 317 315 314 312 311 310 307 307 312 313 313 316 314 313 311 311 310 311 312 314 314 310 308 310 311 312 311 310 311 313 311 309 309 308 308 307 305 301 299 298 297 297 296
320 319 316 314 311 311 309 309 306 309 317 316 313 315 313 311 311 311 310 309 312 312 310 308 309 311 311 311 309 310 309 308 307 306 306 306 305 307 307 302 299 298 297 296 295
320 318 315 313 309 308 308 308 307 310 330 314 314 312 312 309 310 310 310 308 311 309 306 307 309 309 311 309 309 312 305 304 304 305 305 305 306 308 307 301 298 297 297 296 294
320 319 314 311 309 308 308 307 309 320 326 316 314 313 312 308 309 309 309 306 306 308 308 307 306 308 309 307 306 302 303 304 305 306 306 303 301 304 302 297 297 296 295 294 293
320 320 313 311 307 306 307 308 321 322 315 315 312 311 310 311 309 309 308 308 308 305 307 308 309 306 304 307 305 302 304 304 306 308 307 302 300 301 297 296 296 296 294 293 293
320 320 314 310 306 304 304 314 324 321 319 310 311 310 312 308 309 307 305 307 305 308 309 308 307 309 304 302 302 304 304 301 300 303 302 300 299 301 297 296 295 294 293 293 292
320 320 318 311 304 302 304 314 323 317 313 310 311 313 308 309 307 305 305 305 306 306 306 305 305 301 298 300 301 304 302 299 298 297 299 299 300 299 297 296 295 294 292 292 291
319 319 319 311 301 302 306 313 311 311 309 310 317 314 316 311 310 305 304 304 303 300 300 304 303 301 298 298 296 297 298 299 298 296 297 297 297 297 295 295 294 293 292 291 291
319 315 311 306 300 304 305 306 306 306 309 311 312 313 311 311 310 307 304 302 301 297 300 299 300 299 296 297 297 296 296 295 294 294 295 295 297 296 295 294 293 293 291 291 291
317 303 308 302 308 308 308 304 304 306 307 308 309 309 311 310 307 304 305 303 299 297 299 296 297 297 296 294 294 294 296 294 293 293 293 294 294 296 295 294 292 291 291 291 291
314 307 306 304 309 307 306 307 306 309 309 308 309 308 307 306 307 305 304 296 295 296 296 295 296 297 295 294 293 294 293 293 293 293 293 294 295 295 295 293 291 291 291 291 290
315 305 306 309 308 308 311 309 309 307 308 308 307 304 301 302 300 301 301 295 294 294 294 294 295 296 297 297 294 293 293 293 293 293 293 294 294 295 293 292 291 291 290 289 288
313 307 308 310 308 309 310 312 312 311 307 305 302 303 303 303 301 301 299 295 295 294 295 294 294 294 294 294 294 294 293 293 292 293 292 293 293 293 292 291 291 290 289 287 288
317 310 304 307 313 308 308 310 309 310 306 305 305 301 301 305 304 301 298 297 297 294 294 294 294 293 293 293 293 293 293 293 293 293 293 294 294 292 291 291 290 289 287 287 286
315 315 313 315 310 310 314 311 312 309 307 307 303 301 300 303 301 298 299 299 296 295 294 293 293 293 297 291 291 292 293 293 292 292 292 291 291 291 291 291 289 287 288 285 283
Wind_Speed
12 13 14 15 17 19 20 22 23 24 25 28 33 25 6 5 5 6 11 9 9 8 8 8 6 7 1 2 2 1 2 3 2 2 4 2 6 4 8 9 8 6 12 19 26
12 13 14 15 16 17 19 20 22 24 25 26 32 23 7 5 7 10 10 11 11 10 8 7 6 7 1 1 1 2 2 3 0 1 7 14 8 10 6 15 7 11 13 19 29
12 13 14 15 15 16 17 19 21 23 24 26 31 23 10 2 3 8 10 11 11 9 9 8 9 5 1 1 1 1 2 3 1 3 5 11 14 1 8 8 14 16 22 28 26
12 13 14 15 15 16 17 19 20 23 23 26 31 23 8 5 1 4 12 13 11 8 8 8 5 3 1 2 1 5 4 4 1 1 5 10 9 9 5 10 13 13 21 23 23
12 13 15 16 17 17 17 18 19 21 22 25 31 20 2 7 5 7 10 13 12 10 8 7 3 1 3 3 4 3 4 0 3 9 8 9 8 4 4 6 17 25 23 19 19
12 14 16 18 18 18 17 18 19 21 20 24 30 11 3 4 5 7 6 11 13 13 10 6 4 4 2 3 3 2 11 16 1 4 2 4 7 4 4 15 28 20 14 16 19
12 14 17 18 19 18 17 17 20 20 18 27 22 4 9 6 8 5 4 8 13 13 10 6 6 2 1 3 3 4 7 7 6 4 5 5 5 2 7 24 22 14 14 17 19
13 15 17 19 19 18 19 19 20 20 15 29 9 6 6 9 8 7 8 4 10 13 6 7 6 2 2 6 3 3 3 6 7 5 8 13 11 11 16 20 15 12 14 16 19
13 15 17 18 18 18 19 21 21 19 14 19 6 5 5 5 3 8 12 6 8 11 6 6 3 3 1 5 5 2 9 14 11 3 2 5 16 11 22 19 14 14 15 16 15
14 15 17 18 18 19 20 22 20 11 20 9 6 5 4 3 3 10 10 2 5 9 6 5 4 2 2 8 8 12 10 10 19 7 15 10 13 18 19 15 12 13 14 20 21
14 15 17 17 18 20 22 23 23 3 24 5 10 4 3 2 5 7 8 6 7 6 6 5 5 3 5 6 8 8 12 20 21 19 12 12 18 22 8 12 14 14 17 20 21
14 14 15 17 17 15 19 18 12 9 11 13 4 4 3 2 1 6 8 4 4 8 5 5 7 2 5 4 6 11 16 20 13 5 13 21 19 6 10 14 13 12 19 23 26
14 14 14 16 16 12 15 16 16 15 5 4 2 2 2 2 1 4 5 1 1 7 2 5 4 4 2 8 8 13 11 11 14 18 17 17 11 5 11 10 15 14 19 24 28
14 14 13 14 8 13 10 15 15 15 3 2 1 3 2 1 1 4 3 2 2 2 3 7 2 1 5 6 4 10 7 12 19 20 16 16 10 8 10 7 12 16 22 26 33
15 13 12 11 10 10 10 12 14 4 5 2 2 2 2 2 3 1 3 1 5 3 3 2 1 3 4 4 2 4 11 13 23 23 15 5 6 3 8 7 15 19 23 29 39
15 13 11 10 9 7 9 10 7 2 7 1 1 1 2 1 1 5 1 2 2 2 1 3 1 2 2 2 3 9 10 22 9 5 5 9 4 7 6 5 11 19 27 38 45
15 13 12 10 8 6 5 4 2 5 1 3 2 1 1 3 4 3 3 1 3 4 4 2 1 1 2 2 2 9 10 7 5 2 5 8 9 7 8 7 12 19 30 42 43
13 13 13 12 10 7 3 1 6 3 6 2 1 1 5 3 3 0 2 5 3 2 2 4 5 3 2 0 2 2 2 2 7 6 16 15 6 3 8 9 16 24 34 37 39
13 15 15 13 11 8 7 4 6 6 2 4 2 4 3 2 2 3 5 4 3 7 7 6 5 3 4 1 1 5 5 3 4 2 6 6 5 12 8 14 20 29 35 36 43
16 16 17 16 12 12 4 8 7 5 5 2 6 6 7 4 4 3 5 5 6 5 2 3 4 3 5 1 6 2 5 2 3 4 7 10 18 8 14 15 24 32 37 41 47
16 6 11 13 15 11 7 8 7 10 11 8 7 10 9 6 9 5 5 4 6 6 6 5 4 4 2 9 7 4 4 2 0 3 4 7 9 6 12 11 27 32 39 43 49
15 4 10 16 8 5 7 6 9 7 12 8 3 9 11 9 6 7 10 7 10 11 7 5 4 4 4 8 8 9 8 7 4 5 8 7 14 10 2 24 30 35 39 44 52
10 10 13 22 6 7 5 6 9 9 9 12 11 11 7 9 5 10 5 3 10 9 8 8 4 2 2 2 3 7 8 7 7 4 14 6 8 9 23 28 35 36 42 47 53
13 3 8 21 16 9 12 10 11 17 15 13 5 6 5 7 5 4 8 5 7 5 4 4 5 10 11 9 2 5 11 13 14 7 9 18 26 28 22 24 32 41 43 48 50
20 8 11 6 12 18 16 8 16 12 15 15 6 16 11 7 6 7 6 7 6 8 7 4 6 8 13 15 13 16 19 18 21 20 13 18 19 24 22 21 34 41 45 44 47
23 11 10 11 17 21 20 19 27 17 14 11 15 15 13 19 14 11 14 9 6 8 8 6 3 1 4 12 15 18 18 20 18 19 22 23 28 20 27 26 34 41 39 39 46
38 32 21 21 12 12 22 31 27 20 15 26 22 12 13 16 11 1 3 8 11 11 12 8 5 2 7 2 6 12 20 21 11 9 15 15 18 16 21 23 27 38 35 39 43
Wind_Direction
26 20 20 14 13 9 6 7 7 5 359 355 358 3 25 111 89 55 38 33 15 359 344 344 339 343 339 35 44 58 214 210 221 195 348 330 329 337 286 280 284 261 297 326 341
17 12 12 12 9 4 2 0 2 359 357 354 355 5 358 138 86 50 38 30 18 3 356 347 346 5 79 57 44 245 245 171 39 28 317 316 320 321 297 322 319 324 350 336 348
6 4 5 5 1 358 356 354 357 353 353 353 354 0 360 179 85 33 39 7 353 1 1 353 346 4 88 19 3 280 270 140 217 288 308 306 327 46 305 340 5 340 342 344 354
357 358 358 356 355 353 349 348 350 348 350 351 352 356 16 117 20 34 6 26 33 24 2 342 341 16 354 262 340 280 261 214 183 207 308 297 319 325 297 333 343 353 349 353 6
349 349 349 351 350 348 349 345 345 346 348 348 345 347 70 85 90 29 47 33 25 16 2 356 24 11 285 291 306 246 305 74 169 292 268 287 298 303 295 3 356 339 353 9 31
342 344 345 347 346 345 346 344 341 343 344 338 341 350 117 96 78 58 51 20 10 1 359 14 343 310 260 258 258 306 292 292 172 144 180 332 310 335 57 357 345 354 23 61 45
337 339 340 342 342 344 344 346 338 340 339 336 342 94 98 106 90 60 13 4 356 348 341 9 347 325 295 275 293 297 302 310 137 85 146 289 307 200 21 345 340 17 74 53 42
330 334 339 338 339 343 344 344 335 335 331 338 4 123 97 113 78 41 17 355 345 344 337 5 358 4 3 313 278 275 236 341 347 28 143 350 300 321 341 336 11 78 73 48 38
322 330 335 335 339 343 344 342 335 325 334 343 62 97 124 131 83 21 18 30 340 342 6 5 359 11 336 319 280 6 318 325 324 310 38 343 296 310 338 351 80 75 61 43 27
315 326 331 334 339 343 345 343 340 314 337 2 39 108 168 202 205 18 11 25 356 340 317 356 355 300 32 8 317 306 310 307 309 294 333 308 280 316 343 90 89 77 45 26 14
312 323 327 333 340 345 349 358 8 338 336 345 297 239 214 302 193 1 9 346 2 21 356 18 323 324 11 333 289 295 297 304 310 330 338 325 313 321 0 82 77 56 31 12 4
307 316 323 331 340 350 354 21 14 323 307 314 286 239 236 312 176 8 8 9 21 350 338 315 292 29 310 298 306 309 306 307 306 324 335 316 319 330 80 86 60 51 18 12 2
299 307 320 331 335 346 1 5 351 343 287 299 239 237 227 318 95 6 23 37 29 332 254 271 308 356 325 306 320 310 308 316 305 318 296 325 297 348 114 77 44 36 13 7 4
291 303 316 329 334 340 353 353 341 343 282 221 209 220 236 295 152 20 19 354 233 270 272 270 337 295 299 288 327 300 355 312 312 320 310 342 291 324 165 51 25 12 5 359 353
285 296 309 323 318 333 338 342 334 356 307 173 158 204 278 254 307 187 323 195 242 228 192 276 253 285 287 345 330 332 330 309 301 293 309 295 235 226 244 0 5 2 355 351 346
279 286 295 304 305 314 337 337 337 259 251 186 117 282 239 346 340 310 231 178 107 176 275 299 332 284 345 89 60 325 330 307 294 283 248 129 348 255 343 24 359 355 352 346 341
272 278 284 288 282 295 326 337 284 220 54 188 178 31 62 281 313 40 10 289 249 249 225 316 127 98 25 196 191 360 350 321 309 275 284 169 327 313 96 43 13 356 349 338 333
273 277 268 269 264 259 204 143 220 227 242 97 144 212 258 4 227 280 193 238 205 222 149 237 220 210 43 156 328 108 163 231 277 302 296 295 220 177 135 20 6 354 339 330 329
286 285 273 262 248 219 178 211 241 205 167 176 205 269 218 257 263 280 224 239 180 195 207 182 240 133 38 241 289 147 216 38 265 207 280 255 231 182 38 354 348 336 334 330 329
273 288 275 253 231 195 192 231 231 203 146 150 262 203 269 198 229 216 210 156 188 207 264 174 260 192 139 65 51 263 113 160 186 279 289 282 297 266 355 343 337 337 333 332 329
262 263 245 224 199 183 220 220 229 217 189 187 221 252 244 268 231 236 237 169 183 158 175 161 235 153 170 201 209 159 178 154 245 246 261 294 286 33 343 342 335 329 330 329 323
239 223 218 194 179 209 223 202 198 193 211 240 231 235 242 220 222 227 228 219 168 164 185 174 176 219 259 310 255 230 197 178 195 222 236 287 275 306 287 338 328 324 327 324 320
225 229 201 190 216 222 233 243 229 176 195 196 223 207 185 193 230 215 190 141 165 172 170 178 197 228 186 168 169 203 189 195 226 244 236 243 259 206 334 324 324 324 327 324 321
218 198 190 207 235 238 234 227 229 218 242 219 205 141 147 203 228 193 178 172 184 178 153 172 200 235 258 305 135 202 203 214 206 221 259 233 269 289 312 322 324 324 328 323 322
211 218 209 209 229 230 230 248 225 221 213 188 216 217 195 208 187 232 187 167 192 192 174 216 235 243 260 274 268 264 260 244 232 238 246 269 280 286 306 327 321 322 324 323 327
219 198 195 253 246 204 212 228 232 226 186 212 232 194 194 217 191 192 177 177 191 179 173 192 230 292 271 265 261 260 259 253 240 244 248 261 273 285 318 317 322 321 324 328 328
228 233 220 240 209 214 220 234 237 222 229 238 209 177 200 215 210 209 189 220 173 162 182 177 183 168 279 54 319 273 242 240 227 215 233 249 261 320 310 318 324 319 328 328 325